CAPE
0 0 0 0 0 0 0 0 0 0 0 0 0 0 0 0 0 0 0 20 41 30 99 139 125 96 101 8 0 0 0 0 0 0 0 0 0 0 0 0 0 0 0 0
0 0 0 0 0 0 0 0 0 0 0 0 0 0 0 0 0 0 25 60 65 66 134 165 67 1 0 0 0 0 0 0 0 0 0 0 11 0 0 0 1 2 1 2
0 0 0 0 0 0 0 0 0 0 0 0 0 0 0 0 0 0 5 40 49 74 164 82 0 0 0 0 0 0 0 0 0 12 0 0 0 5 2 10 8 17 15 19
0 0 0 0 0 0 0 0 0 0 0 1 0 0 0 0 0 0 25 54 70 84 19 0 0 0 0 0 0 0 0 0 0 6 2 11 10 7 7 2 7 12 21 22
0 0 0 0 0 0 0 0 0 0 0 0 0 0 3 0 0 1 0 1 0 0 0 0 0 0 0 0 0 0 0 1 6 13 17 9 12 7 5 11 68 146 92 49
0 0 0 0 0 0 0 0 0 0 0 0 0 0 0 0 0 0 0 0 0 0 0 0 0 0 0 0 0 0 0 1 4 3 7 19 29 35 38 43 56 46 43 64
0 0 0 0 0 0 0 1 9 29 27 12 0 0 0 0 0 0 0 0 0 0 0 0 0 0 0 0 0 0 0 0 2 1 1 4 18 44 59 88 56 83 57 49
2 15 0 0 0 1 0 0 4 4 5 3 0 0 0 0 0 0 0 4 0 0 0 0 0 0 0 0 0 0 0 0 0 0 0 4 20 27 28 73 74 65 69 94
6 7 0 0 0 0 2 2 0 0 0 0 0 0 0 0 0 0 0 0 0 0 0 0 0 0 0 0 0 0 0 1 2 0 3 14 35 55 62 97 87 84 115 134
0 6 0 0 0 0 0 0 2 12 0 0 0 0 0 0 0 0 1 3 8 8 3 3 6 2 4 3 3 2 9 8 5 9 17 28 29 57 90 104 105 116 116 93
0 2 7 0 0 0 0 0 0 0 0 0 0 1 0 0 0 0 0 0 4 17 26 38 49 28 13 18 8 26 35 24 25 21 26 27 45 72 86 53 58 42 12 37
0 38 77 1 0 0 0 0 0 0 0 2 0 0 0 0 0 0 0 0 0 5 27 34 29 23 36 59 68 65 48 34 29 35 30 31 73 93 38 80 10 14 21 19
0 10 84 11 2 0 0 0 0 0 0 0 0 3 0 0 0 0 0 10 44 55 49 36 56 70 81 91 54 49 52 43 38 20 27 68 99 24 21 34 20 13 9 14
0 0 4 19 25 0 0 0 0 0 0 1 0 0 0 12 14 27 44 61 53 64 72 80 90 87 89 102 39 47 47 29 29 38 62 62 3 5 11 15 21 25 13 11
0 9 10 6 0 0 0 0 0 0 0 0 0 0 13 23 17 10 20 39 50 58 66 78 64 89 57 77 28 26 24 31 39 79 49 4 8 15 18 26 19 14 9 5
0 16 0 3 0 0 0 0 0 0 0 0 0 8 32 20 38 39 44 40 50 61 60 76 77 73 63 30 29 27 18 11 30 17 8 10 5 17 31 47 10 1 0 1
8 14 23 15 0 0 0 0 0 0 0 2 18 49 30 48 49 46 48 46 48 51 44 25 32 20 37 39 17 18 12 3 21 17 13 8 7 36 58 46 48 61 65 72
1 4 12 4 0 15 0 0 0 0 0 2 8 30 33 34 41 21 68 64 49 27 18 20 11 12 29 9 13 32 6 17 10 7 9 10 51 59 50 47 61 82 78 74
0 4 9 26 60 7 2 0 0 0 2 7 13 11 6 17 29 43 69 12 15 20 22 16 19 14 24 20 22 1 22 7 4 12 52 62 58 77 75 86 102 125 116 95
0 0 10 4 41 15 12 0 0 0 15 3 4 12 18 23 43 72 17 18 19 14 9 31 16 14 27 7 5 21 5 5 21 68 78 67 72 72 74 116 95 117 86 94
0 1 4 34 51 26 0 0 0 14 47 10 13 25 41 75 90 42 24 15 14 7 9 18 15 12 6 2 20 8 24 35 53 69 8 84 61 68 93 110 81 106 121 126
29 47 37 40 35 22 0 3 22 30 0 6 33 59 82 75 39 22 12 15 4 8 10 5 3 3 10 13 14 17 43 66 59 81 69 79 70 60 68 110 141 96 117 102
39 58 110 41 79 25 3 0 9 1 13 34 73 79 44 19 17 14 18 18 9 8 8 5 6 14 11 16 60 64 57 75 87 62 70 84 70 85 90 87 95 92 111 83
1 0 2 0 0 0 0 0 6 16 39 55 33 7 11 16 13 18 9 13 9 8 5 8 12 14 18 45 44 59 74 83 80 84 73 83 74 98 122 78 132 78 81 115
0 0 0 0 0 0 8 13 22 37 16 5 6 12 14 13 18 4 25 6 6 7 9 12 8 19 39 55 63 64 58 60 66 74 74 75 52 80 150 62 60 90 9 5
0 0 0 3 9 2 20 16 5 10 2 4 6 5 12 11 4 23 7 5 7 9 10 5 30 16 11 30 52 54 60 61 68 75 91 88 65 49 100 158 43 0 0 0
CIN
-0 -0 -0 -0 -0 -0 -0 -0 -0 -0 -0 -0 -0 -0 -0 -0 -0 -0 -0 -171 -190 -205 -165 -114 -113 -111 -93 -111 -0 -0 -0 -0 -0 -0 -0 -0 -0 -0 -0 -0 -0 -0 -0 -0
-0 -0 -0 -0 -0 -0 -0 -0 -0 -0 -0 -0 -0 -0 -0 -0 -0 -0 -202 -182 -188 -170 -76 -60 -89 -8 -0 -0 -0 -0 -0 -0 -0 -0 -0 -0 -59 -0 -0 -0 -0 -0 -0 -0
-0 -0 -0 -0 -0 -0 -0 -0 -0 -0 -0 -0 -0 -0 -0 -0 -0 -0 -128 -178 -162 -101 -32 -51 -0 -0 -0 -0 -0 -0 -0 -0 -0 -82 -0 -0 -0 -0 -0 -0 -0 -0 -0 -0
-0 -0 -0 -0 -0 -0 -0 -0 -0 -0 -0 -0 -0 -0 -0 -0 -0 -0 -200 -162 -100 -60 -75 -0 -0 -0 -0 -0 -0 -0 -0 -0 -0 -49 -0 -0 -1 -0 -0 -0 -0 -0 -0 -0
-0 -0 -0 -0 -0 -0 -0 -0 -0 -0 -0 -0 -0 -0 -31 -0 -0 -137 -11 -45 -0 -0 -0 -0 -0 -0 -0 -0 -0 -0 -0 -0 -0 -0 -0 -0 -0 -0 -0 -0 -0 -0 -0 -0
-0 -0 -0 -0 -0 -0 -0 -0 -0 -0 -0 -0 -0 -0 -0 -0 -0 -0 -0 -0 -0 -0 -0 -0 -0 -0 -0 -0 -0 -0 -0 -0 -0 -0 -0 -0 -0 -0 -0 -0 -0 -0 -0 -0
-0 -0 -0 -0 -0 -0 -0 -0 -0 -0 -0 -0 -0 -0 -0 -0 -0 -0 -0 -0 -0 -0 -0 -0 -0 -0 -0 -0 -0 -0 -0 -0 -0 -0 -0 -0 -0 -0 -0 -0 -0 -0 -0 -0
-0 -0 -0 -0 -0 -0 -0 -0 -0 -0 -0 -0 -0 -0 -0 -0 -0 -0 -0 -0 -0 -0 -0 -0 -0 -0 -0 -0 -0 -0 -0 -0 -0 -0 -0 -0 -0 -0 -0 -0 -0 -0 -0 -0
-0 -0 -0 -0 -0 -0 -0 -0 -0 -0 -0 -0 -0 -0 -0 -0 -0 -0 -0 -0 -0 -0 -0 -0 -0 -0 -0 -0 -0 -0 -0 -0 -0 -0 -0 -0 -0 -0 -0 -0 -0 -0 -0 -0
-0 -0 -0 -0 -0 -0 -0 -0 -0 -0 -0 -0 -0 -0 -0 -0 -0 -0 -5 -6 -3 -21 -37 -7 -2 -0 -30 -49 -62 -0 -0 -0 -0 -0 -0 -0 -0 -0 -0 -0 -0 -0 -0 -0
-0 -0 -6 -0 -0 -0 -0 -0 -0 -0 -0 -0 -0 -0 -0 -0 -0 -0 -0 -0 -21 -2 -0 -0 -0 -0 -8 -20 -0 -0 -0 -0 -0 -0 -0 -0 -0 -0 -0 -1 -0 -2 -0 -0
-0 -9 -0 -0 -0 -0 -0 -0 -0 -0 -0 -0 -0 -0 -0 -0 -0 -0 -0 -0 -0 -11 -0 -0 -0 -0 -0 -0 -0 -0 -0 -0 -0 -0 -0 -0 -0 -0 -1 -0 -0 -0 -0 -0
-0 -0 -0 -0 -1 -0 -0 -0 -0 -0 -0 -0 -0 -0 -0 -0 -0 -0 -0 -0 -0 -0 -0 -0 -0 -0 -0 -0 -2 -0 -0 -0 -0 -0 -0 -0 -0 -0 -4 -0 -0 -0 -0 -0
-0 -0 -0 -0 -1 -0 -0 -0 -0 -0 -0 -0 -0 -0 -0 -0 -0 -0 -0 -0 -0 -0 -0 -0 -0 -0 -0 -3 -0 -0 -0 -0 -0 -0 -0 -1 -0 -0 -0 -0 -0 -0 -0 -0
-3 -0 -0 -0 -0 -0 -0 -0 -0 -0 -0 -0 -0 -0 -0 -0 -0 -0 -0 -0 -0 -0 -0 -0 -0 -0 -0 -0 -1 -0 -0 -0 -0 -0 -0 -1 -0 -0 -0 -0 -0 -0 -0 -1
-0 -0 -0 -0 -0 -0 -0 -0 -0 -0 -0 -0 -0 -0 -0 -0 -0 -0 -0 -0 -0 -0 -0 -0 -0 -0 -0 -0 -0 -0 -0 -0 -0 -0 -0 -0 -0 -0 -1 -0 -1 -4 -0 -0
-2 -0 -0 -0 -0 -0 -0 -0 -0 -0 -0 -0 -0 -0 -0 -0 -0 -0 -0 -0 -0 -0 -0 -0 -0 -0 -0 -0 -0 -0 -1 -0 -0 -1 -0 -0 -0 -0 -0 -0 -0 -0 -0 -0
-0 -3 -0 -0 -0 -0 -0 -0 -0 -0 -0 -0 -0 -0 -0 -0 -0 -0 -0 -0 -0 -0 -0 -0 -0 -0 -0 -0 -0 -0 -0 -0 -0 -0 -0 -8 -0 -0 -0 -0 -0 -0 -0 -0
-0 -0 -0 -0 -0 -0 -3 -0 -0 -0 -0 -0 -0 -0 -0 -0 -0 -0 -0 -0 -0 -0 -0 -0 -0 -0 -0 -0 -0 -0 -0 -0 -0 -0 -0 -0 -0 -0 -0 -0 -0 -0 -0 -0
-0 -0 -0 -0 -0 -0 -2 -0 -0 -0 -0 -0 -0 -0 -0 -0 -0 -0 -0 -0 -0 -0 -0 -0 -0 -0 -0 -0 -0 -0 -0 -0 -0 -0 -0 -0 -0 -0 -0 -0 -0 -0 -0 -0
-0 -0 -0 -0 -0 -0 -1 -0 -0 -0 -0 -0 -0 -0 -0 -0 -0 -0 -0 -0 -0 -0 -0 -0 -0 -0 -0 -0 -0 -0 -0 -1 -0 -0 -18 -0 -0 -0 -0 -0 -0 -0 -0 -0
-0 -0 -0 -0 -0 -0 -0 -0 -0 -0 -0 -0 -0 -0 -0 -0 -0 -0 -0 -0 -0 -0 -0 -0 -0 -0 -0 -0 -0 -0 -1 -0 -0 -0 -0 -0 -0 -0 -0 -0 -0 -0 -0 -0
-0 -0 -0 -0 -0 -2 -0 -0 -0 -0 -0 -0 -0 -0 -0 -0 -0 -0 -0 -0 -0 -0 -0 -0 -0 -0 -0 -2 -0 -0 -0 -0 -0 -0 -0 -0 -0 -0 -0 -0 -0 -0 -0 -0
-0 -0 -0 -0 -0 -0 -0 -0 -0 -0 -0 -0 -0 -0 -0 -0 -0 -0 -0 -0 -0 -0 -0 -0 -0 -0 -1 -0 -0 -0 -0 -0 -0 -0 -0 -0 -0 -1 -0 -0 -0 -0 -0 -0
-0 -0 -0 -0 -0 -0 -0 -0 -2 -0 -4 -2 -0 -0 -0 -0 -0 -0 -0 -0 -0 -0 -0 -0 -0 -0 -0 -0 -0 -0 -0 -0 -0 -0 -0 -0 -0 -0 -0 -5 -8 -0 -0 -0
-0 -0 -0 -0 -0 -0 -0 -3 -17 -5 -0 -0 -0 -0 -0 -0 -0 -0 -0 -0 -0 -0 -0 -0 -1 -1 -2 -0 -0 -0 -0 -0 -0 -0 -0 -0 -0 -0 -0 -0 -0 -0 -0 -0
Wind_Speed
5 10 13 16 8 6 5 5 8 6 3 2 1 1 4 4 1 7 10 12 13 11 10 10 7 4 4 6 7 9 10 11 10 9 10 10 11 11 10 10 12 13 12 14
10 3 4 1 5 7 7 7 4 5 3 7 4 3 2 3 1 5 10 12 13 12 12 9 6 4 5 5 7 8 9 10 9 8 8 9 9 11 10 11 11 14 15 17
7 9 5 7 8 8 3 5 3 6 4 5 6 11 7 4 5 5 9 11 13 13 11 8 6 2 3 6 7 7 8 9 9 10 9 9 10 11 11 11 13 13 16 18
5 5 6 7 4 7 7 2 2 3 7 8 6 8 10 8 8 10 11 12 12 10 8 7 5 2 3 5 4 6 7 9 9 9 10 12 12 13 12 13 13 13 17 19
7 5 6 7 3 4 7 2 4 6 11 8 13 9 11 9 10 12 13 14 11 10 9 7 3 2 3 3 6 6 8 9 10 11 12 13 15 14 14 14 17 16 16 17
5 1 3 6 3 1 6 7 9 9 9 12 4 6 9 10 13 14 14 14 12 10 7 4 2 1 1 4 6 7 8 9 12 14 16 17 18 17 15 16 15 14 13 13
3 3 4 2 6 5 7 8 8 7 8 5 5 7 7 1 1 10 15 14 11 7 7 6 6 5 3 6 7 8 10 13 14 16 17 18 18 18 19 17 13 12 12 13
5 7 3 2 4 7 4 6 7 10 11 11 9 7 7 5 6 2 4 11 8 7 7 6 3 6 7 5 8 10 13 15 16 17 18 17 18 12 13 13 13 12 13 11
4 3 5 4 1 5 6 6 7 10 11 10 7 4 9 6 6 4 4 3 7 7 6 6 6 7 7 8 9 11 14 16 17 19 17 17 15 13 13 14 15 12 15 11
1 8 4 5 3 4 6 4 6 5 6 10 3 4 5 6 3 4 6 4 7 5 6 7 7 7 7 8 10 11 14 17 18 19 16 15 15 14 12 13 14 16 13 13
3 5 7 5 2 7 5 6 3 6 6 9 9 3 8 7 7 9 11 9 7 5 8 8 9 10 10 12 12 13 15 18 18 18 17 16 15 13 12 10 11 7 9 10
3 5 7 4 3 2 4 3 4 5 5 4 7 7 7 6 8 7 6 3 5 8 11 13 14 15 14 13 13 15 15 17 18 18 14 14 13 12 10 10 10 10 9 9
1 3 7 8 8 5 6 3 2 4 5 10 10 3 4 4 8 6 8 9 9 10 13 15 15 16 15 14 11 14 16 17 19 15 14 14 11 9 7 10 8 8 8 8
4 5 10 10 9 5 5 6 6 6 6 10 9 12 9 11 5 5 7 10 13 13 15 15 16 17 15 8 11 14 17 18 16 13 13 10 8 6 8 7 7 7 6 6
4 8 5 7 6 8 11 10 9 11 11 8 10 9 9 9 9 10 12 15 16 18 18 17 17 18 17 14 12 15 16 15 14 14 8 7 6 7 7 7 7 6 6 6
1 5 7 11 7 11 13 11 8 10 10 9 11 11 6 7 7 12 16 19 18 18 19 20 21 21 18 12 13 14 12 11 13 8 8 7 5 5 5 6 4 4 6 7
4 3 6 10 2 8 11 4 4 3 4 7 9 11 10 9 14 16 19 16 15 19 21 20 21 18 16 15 12 12 10 9 8 7 6 4 4 7 6 5 7 7 7 7
4 5 5 6 6 5 7 2 4 6 4 4 7 9 8 14 16 19 13 15 18 20 20 20 18 16 13 12 11 10 7 7 6 4 4 5 7 8 6 4 5 6 6 7
6 6 3 3 3 8 8 3 2 6 9 7 5 9 15 16 16 7 15 17 18 20 19 18 15 16 12 11 10 8 5 4 2 2 4 7 8 8 9 8 8 8 7 5
6 6 5 4 4 5 9 5 2 4 6 6 9 14 16 16 13 13 18 18 18 17 14 16 14 12 11 11 8 5 4 1 3 8 9 8 6 6 7 7 7 6 5 6
5 6 9 7 5 5 4 2 3 5 6 11 12 13 13 12 11 14 16 16 15 12 14 15 14 11 10 8 5 5 2 6 6 5 6 7 5 6 7 8 5 6 7 7
4 4 4 4 5 4 3 3 5 9 10 12 11 12 11 13 14 15 16 15 12 13 13 12 10 10 7 5 5 4 2 4 4 5 4 7 7 8 8 9 8 5 7 8
3 4 3 3 4 5 3 5 6 8 10 9 11 11 10 13 14 15 14 11 10 11 10 9 8 7 8 3 4 7 7 7 7 8 6 8 9 9 8 6 6 5 8 8
3 1 3 3 4 1 4 5 6 7 8 8 7 9 12 14 14 13 11 9 9 8 8 7 5 6 3 5 7 9 9 8 7 8 9 7 7 8 9 7 8 9 9 8
5 1 2 5 4 5 4 7 7 5 5 7 9 11 12 13 13 11 9 8 8 7 6 4 4 3 7 7 9 7 7 6 6 7 6 7 6 6 8 11 10 9 11 11
2 1 2 2 6 6 6 6 7 7 8 9 11 12 12 12 10 11 9 6 6 4 3 4 3 7 5 5 7 6 6 7 7 6 7 8 7 6 8 5 8 8 9 12
Wind_Direction
194 230 216 222 233 329 251 240 176 105 89 239 346 290 25 19 120 180 187 171 181 159 147 145 123 118 103 51 30 19 13 11 356 349 341 339 336 329 323 325 322 327 327 331
205 212 65 62 201 198 203 197 154 128 119 273 206 232 68 50 95 185 178 178 168 162 164 145 145 121 77 41 20 17 12 2 349 336 334 325 312 315 314 299 313 317 320 322
307 92 140 185 169 181 200 279 156 326 153 239 229 221 200 129 145 166 181 177 177 178 160 164 157 111 25 34 23 14 353 340 331 324 309 308 306 301 306 312 315 309 319 310
52 121 180 192 173 276 212 119 229 222 248 292 205 291 178 173 171 184 179 184 177 158 166 164 176 161 76 41 20 355 336 323 318 323 316 318 300 305 320 298 310 317 306 311
85 161 186 230 31 279 47 171 268 279 273 297 199 247 112 172 201 193 189 188 171 180 180 179 183 93 70 24 356 328 322 320 322 316 310 309 307 313 310 310 310 309 294 295
76 84 301 19 102 334 135 225 234 251 261 245 97 272 180 174 224 190 192 189 187 188 190 196 152 128 332 294 314 328 321 319 319 320 313 309 304 303 305 308 299 296 325 307
176 118 119 266 203 179 230 256 283 251 209 293 106 263 297 271 217 201 193 192 191 196 208 216 224 247 293 305 324 315 328 324 329 324 318 313 309 305 300 305 312 312 304 306
271 192 189 22 328 344 333 320 297 305 304 318 157 255 89 23 68 21 296 186 182 212 222 242 261 281 296 312 308 325 328 332 331 328 324 318 313 312 308 303 306 312 304 311
264 204 125 51 292 303 115 259 16 287 250 263 269 113 162 128 122 130 120 175 213 223 241 252 266 272 286 309 320 330 335 329 332 329 323 316 316 316 305 306 308 299 310 305
21 266 199 126 245 93 310 29 253 227 287 301 261 244 324 98 94 142 191 233 228 242 260 262 275 285 298 309 319 329 331 332 330 326 319 316 323 309 312 324 326 319 311 325
276 257 139 193 232 338 217 230 230 301 290 292 300 37 50 54 36 355 335 356 346 297 282 289 298 310 317 311 314 327 331 328 325 323 322 317 318 317 322 319 324 316 318 317
48 300 269 353 42 277 296 321 283 278 262 279 305 282 69 38 356 343 347 345 342 320 316 317 318 312 297 297 310 326 327 324 326 321 323 316 319 319 335 320 341 327 331 337
96 221 256 190 182 178 250 181 291 292 274 271 283 308 101 22 341 345 330 327 307 307 309 311 306 314 310 310 323 330 320 327 321 334 318 311 329 349 325 333 331 334 337 337
286 266 271 273 353 346 239 227 252 264 275 274 278 309 352 8 347 312 303 321 315 314 308 311 318 315 317 327 345 315 329 323 329 313 320 8 356 339 337 326 329 345 347 347
304 266 275 282 289 281 282 285 249 249 258 273 296 305 335 354 344 335 321 316 324 322 326 324 320 325 321 338 338 329 322 336 325 323 12 350 337 345 339 346 353 351 334 326
190 256 278 273 259 277 281 272 258 260 274 272 280 282 41 341 306 321 327 329 321 334 330 330 325 325 335 327 320 320 342 335 336 351 346 3 355 316 347 352 10 303 297 287
262 253 265 285 345 291 266 278 235 235 250 301 298 1 341 333 337 329 321 318 342 333 334 328 324 319 325 314 335 328 344 321 319 345 1 1 322 314 334 338 315 356 356 348
224 238 265 289 282 257 76 67 322 307 323 294 302 341 342 333 336 319 15 355 338 333 331 322 326 325 325 325 326 356 317 334 356 354 15 319 321 345 336 337 344 10 23 24
243 227 240 248 236 270 162 123 12 357 324 44 356 341 334 330 320 308 19 351 340 336 340 332 327 328 317 318 356 307 8 9 5 359 348 350 348 5 356 12 17 18 22 25
190 241 183 233 255 289 69 114 26 297 275 40 344 331 328 328 316 342 355 341 338 349 332 337 334 332 326 355 319 338 43 71 40 353 348 1 10 9 12 31 29 9 26 32
173 205 224 218 256 302 78 142 259 263 20 341 333 325 322 323 336 327 341 336 358 334 335 335 340 330 321 313 334 65 125 29 336 355 351 349 15 21 9 1 13 12 19 20
241 205 195 228 255 262 93 178 299 4 328 321 328 321 331 329 325 335 334 348 348 336 339 339 332 330 351 51 82 99 58 1 3 52 47 26 14 14 20 23 23 21 23 19
241 337 343 296 23 63 19 343 5 322 309 324 330 343 330 319 329 330 338 348 338 334 338 337 340 43 48 74 56 42 37 16 31 66 35 29 17 11 9 20 35 22 22 12
147 34 256 304 86 359 325 331 336 344 340 350 342 331 331 327 327 331 332 344 337 336 338 342 53 61 85 56 52 42 33 21 37 35 32 27 26 25 30 23 16 29 25 22
37 249 320 271 293 302 147 23 353 349 347 334 337 335 328 327 330 333 333 328 324 332 349 72 85 99 70 68 63 49 37 20 30 27 24 5 7 54 67 51 25 54 48 27
162 12 248 345 21 315 26 11 5 348 349 346 333 328 342 338 330 334 328 319 320 339 83 113 153 85 83 77 52 35 13 12 359 352 8 13 349 351 68 88 93 67 75 53